Pittsfield, IL

9:31 PM CDT on April 27, 2017 (GMT -0500)
Pittsfield Penstone Municipal

Weather History for KPPQ - August, 2013

Change the Weather History Date:

Friday, August 23, 2013

  Actual Average (KUIN) Record (KUIN)
Temperature  
Mean Temperature 78 °F -  
Max Temperature 88 °F 82 °F 103 °F (1947)
Min Temperature 67 °F 63 °F 48 °F (1939)
Cooling Degree Days 12    
Growing Degree Days 28 (Base 50)    
Moisture  
Dew Point 68 °F    
Average Humidity 74    
Maximum Humidity 92    
Minimum Humidity 50    
Precipitation  
Precipitation 0.00 in - - ()
Sea Level Pressure  
Sea Level Pressure 30.12 in    
Wind  
Wind Speed 3 mph (ENE)    
Max Wind Speed 8 mph    
Max Gust Speed -    
Visibility 9 miles    
Events Thunderstorm    
Averages and records for this station are not official NWS values.
T = Trace of Precipitation, MM = Missing Value Source: NWS Daily Summary

Daily Weather History Graph

Daily Weather History Graph

Search for Another Location

Airport or City:

Trip Planner

Search our weather history database for the weather conditions in past years. The results will help you decide how hot, cold, wet, or windy it might be!

Date:

Astronomy

Aug. 23, 2013 Rise Set
Actual Time 6:23 AM CDT 7:47 PM CDT
Civil Twilight 5:54 AM CDT 8:15 PM CDT
Nautical Twilight 5:21 AM CDT 8:49 PM CDT
Astronomical Twilight 4:45 AM CDT 9:24 PM CDT
Moon 9:07 PM CDT (8/23) 9:17 AM CDT (8/23)
Length of Visible Light 14h 20m
Length of Day
13h 24m
Waning Gibbous, 91% of the Moon is Illuminated
Aug 23
Waning Gibbous
Aug 28
Last Quarter
Sep 5
New
Sep 12
First Quarter
Sep 19
Full

Hourly Weather History & Observations

Time (CDT) Temp. Heat Index Dew Point Humidity Pressure Visibility Wind Dir Wind Speed Gust Speed Precip Events Conditions
12:15 AM 72.5 °F - 68.2 °F 86% 30.09 in 10.0 mi Calm Calm - N/A   Mostly Cloudy
12:35 AM 72.1 °F - 68.2 °F 87% 30.10 in 10.0 mi NNE 5.8 mph - N/A   Mostly Cloudy
12:55 AM 72.5 °F - 68.0 °F 86% 30.10 in 10.0 mi NE 4.6 mph - N/A   Overcast
1:15 AM 72.1 °F - 67.6 °F 86% 30.10 in 10.0 mi NE 6.9 mph - N/A Thunderstorm Overcast
1:35 AM 72.0 °F - 67.5 °F 86% 30.10 in 10.0 mi NE 3.5 mph - N/A   Scattered Clouds
2:15 AM 71.6 °F - 67.3 °F 86% 30.09 in 10.0 mi NNE 3.5 mph - N/A Thunderstorm Unknown
2:35 AM 70.9 °F - 67.1 °F 88% 30.09 in 10.0 mi ENE 3.5 mph - N/A   Clear
2:55 AM 71.2 °F - 67.5 °F 88% 30.11 in 10.0 mi ENE 3.5 mph - N/A   Mostly Cloudy
3:15 AM 71.6 °F - 67.6 °F 87% 30.11 in 10.0 mi ENE 4.6 mph - N/A   Overcast
3:35 AM 71.6 °F - 67.3 °F 86% 30.11 in 10.0 mi ENE 5.8 mph - N/A   Overcast
3:55 AM 70.9 °F - 67.1 °F 88% 30.11 in 10.0 mi ENE 4.6 mph - N/A   Mostly Cloudy
4:15 AM 70.0 °F - 66.7 °F 89% 30.11 in 10.0 mi NE 4.6 mph - N/A   Scattered Clouds
4:35 AM 69.8 °F - 66.6 °F 89% 30.11 in 10.0 mi ENE 3.5 mph - N/A   Clear
4:55 AM 69.8 °F - 66.6 °F 89% 30.11 in 10.0 mi ENE 3.5 mph - N/A   Clear
5:15 AM 69.1 °F - 66.2 °F 91% 30.11 in 7.0 mi Calm Calm - N/A   Clear
5:35 AM 68.5 °F - 66.0 °F 92% 30.12 in 7.0 mi Calm Calm - N/A   Clear
5:55 AM 68.0 °F - 65.3 °F 91% 30.12 in 5.0 mi Calm Calm - N/A   Clear
6:15 AM 67.8 °F - 65.3 °F 92% 30.12 in 5.0 mi Calm Calm - N/A   Clear
6:35 AM 68.0 °F - 65.7 °F 92% 30.13 in 4.0 mi Calm Calm - N/A   Clear
6:55 AM 68.0 °F - 65.5 °F 92% 30.13 in 4.0 mi Calm Calm - N/A   Clear
7:15 AM 69.3 °F - 66.7 °F 92% 30.13 in 4.0 mi Calm Calm - N/A   Clear
7:35 AM 70.0 °F - 67.1 °F 91% 30.13 in 7.0 mi Calm Calm - N/A   Clear
7:55 AM 70.7 °F - 67.1 °F 88% 30.13 in 7.0 mi Calm Calm - N/A   Clear
8:15 AM 72.3 °F - 67.8 °F 86% 30.13 in 7.0 mi Calm Calm - N/A   Clear
8:35 AM 73.9 °F - 68.4 °F 83% 30.13 in 10.0 mi Calm Calm - N/A   Clear
8:55 AM 75.4 °F - 68.9 °F 80% 30.14 in 10.0 mi Calm Calm - N/A   Clear
9:15 AM 77.5 °F - 69.4 °F 76% 30.13 in 10.0 mi Calm Calm - N/A   Clear
9:35 AM 79.2 °F - 69.4 °F 72% 30.13 in 10.0 mi East 3.5 mph - N/A   Clear
9:55 AM 79.9 °F - 68.5 °F 68% 30.14 in 10.0 mi Calm Calm - N/A   Clear
10:15 AM 80.8 °F 83.8 °F 68.7 °F 67% 30.14 in 10.0 mi Calm Calm - N/A   Clear
10:35 AM 81.9 °F 85.2 °F 69.1 °F 65% 30.14 in 10.0 mi East 4.6 mph - N/A   Clear
10:55 AM 82.8 °F 86.2 °F 69.1 °F 63% 30.14 in 10.0 mi East 4.6 mph - N/A   Clear
11:15 AM 82.9 °F 86.5 °F 69.3 °F 63% 30.14 in 10.0 mi East 4.6 mph - N/A   Clear
11:35 AM 83.7 °F 87.2 °F 69.1 °F 61% 30.14 in 10.0 mi ESE 3.5 mph - N/A   Clear
11:55 AM 83.7 °F 87.5 °F 69.4 °F 62% 30.14 in 10.0 mi Calm Calm - N/A   Clear
12:15 PM 84.2 °F 87.9 °F 68.7 °F 60% 30.13 in 10.0 mi ENE 5.8 mph - N/A   Clear
12:35 PM 84.7 °F 88.2 °F 68.4 °F 58% 30.13 in 10.0 mi ESE 3.5 mph - N/A   Clear
12:55 PM 84.9 °F 88.5 °F 68.5 °F 58% 30.13 in 10.0 mi East 5.8 mph - N/A   Clear
1:15 PM 85.1 °F 88.5 °F 68.4 °F 57% 30.13 in 10.0 mi East 5.8 mph - N/A   Clear
1:35 PM 85.8 °F 89.4 °F 68.4 °F 56% 30.13 in 10.0 mi Calm Calm - N/A   Clear
1:55 PM 86.2 °F 89.7 °F 68.2 °F 55% 30.13 in 10.0 mi East 3.5 mph - N/A   Clear
2:15 PM 86.4 °F 89.4 °F 67.6 °F 53% 30.12 in 10.0 mi East 4.6 mph - N/A   Clear
2:35 PM 86.9 °F 90.6 °F 68.5 °F 54% 30.12 in 10.0 mi ENE 6.9 mph - N/A   Clear
2:55 PM 88.0 °F 91.4 °F 67.6 °F 51% 30.11 in 10.0 mi ESE 3.5 mph - N/A   Clear
3:15 PM 87.3 °F 90.2 °F 67.3 °F 51% 30.11 in 10.0 mi NE 5.8 mph - N/A   Clear
3:35 PM 87.1 °F 89.9 °F 66.7 °F 51% 30.10 in 10.0 mi East 5.8 mph - N/A   Clear
3:55 PM 88.3 °F 92.0 °F 68.2 °F 51% 30.09 in 10.0 mi ENE 8.1 mph - N/A   Clear
4:15 PM 87.3 °F 90.2 °F 67.3 °F 51% 30.09 in 10.0 mi East 4.6 mph - N/A   Clear
4:35 PM 87.6 °F 90.4 °F 66.7 °F 50% 30.08 in 10.0 mi ENE 6.9 mph - N/A   Clear
4:55 PM 87.1 °F 90.2 °F 67.6 °F 52% 30.08 in 10.0 mi East 8.1 mph - N/A   Clear
5:15 PM 86.9 °F 90.6 °F 68.2 °F 54% 30.08 in 10.0 mi East 5.8 mph - N/A   Clear
5:35 PM 86.0 °F 89.1 °F 67.5 °F 54% 30.08 in 10.0 mi East 6.9 mph - N/A   Clear
5:55 PM 85.5 °F 88.8 °F 68.0 °F 56% 30.08 in 10.0 mi East 5.8 mph - N/A   Clear
6:15 PM 84.7 °F 87.6 °F 67.5 °F 56% 30.08 in 10.0 mi East 4.6 mph - N/A   Clear
6:35 PM 84.2 °F 87.3 °F 68.0 °F 58% 30.09 in 10.0 mi East 4.6 mph - N/A   Clear
6:55 PM 82.9 °F 85.8 °F 68.0 °F 60% 30.09 in 10.0 mi ENE 4.6 mph - N/A   Clear
7:15 PM 81.5 °F 84.6 °F 68.9 °F 65% 30.09 in 10.0 mi East 3.5 mph - N/A   Clear
7:35 PM 79.2 °F - 69.4 °F 72% 30.10 in 10.0 mi Calm Calm - N/A   Clear
7:55 PM 78.3 °F - 69.3 °F 74% 30.10 in 10.0 mi Calm Calm - N/A   Clear
8:15 PM 77.0 °F - 69.1 °F 76% 30.11 in 10.0 mi Calm Calm - N/A   Clear
8:35 PM 76.1 °F - 68.9 °F 78% 30.11 in 10.0 mi East 3.5 mph - N/A   Clear
8:55 PM 75.7 °F - 68.4 °F 78% 30.12 in 10.0 mi Calm Calm - N/A   Clear
9:15 PM 74.3 °F - 68.2 °F 81% 30.12 in 10.0 mi ENE 4.6 mph - N/A   Clear
9:35 PM 74.3 °F - 68.5 °F 82% 30.13 in 10.0 mi ENE 3.5 mph - N/A   Clear
9:55 PM 72.9 °F - 68.2 °F 85% 30.13 in 10.0 mi East 3.5 mph - N/A   Clear
10:15 PM 73.4 °F - 68.2 °F 84% 30.13 in 10.0 mi East 3.5 mph - N/A   Clear
10:35 PM 72.7 °F - 68.0 °F 85% 30.13 in 10.0 mi Calm Calm - N/A   Clear
10:55 PM 72.1 °F - 68.2 °F 87% 30.13 in 10.0 mi Calm Calm - N/A   Clear
11:15 PM 71.8 °F - 68.0 °F 88% 30.13 in 10.0 mi Calm Calm - N/A   Clear
11:35 PM 71.1 °F - 67.1 °F 87% 30.13 in 10.0 mi Calm Calm - N/A   Clear
11:55 PM 71.2 °F - 68.0 °F 89% 30.13 in 10.0 mi Calm Calm - N/A   Clear